Change the Weather History Date:

Monday, June 9, 2014

  Actual Average Record
Temperature  
Mean Temperature 86 °F 80 °F  
Max Temperature 92 °F 88 °F 98 °F (2007)
Min Temperature 79 °F 71 °F 56 °F (1977)
Degree Days  
Heating Degree Days 0    
Month to date heating degree days 0  
Since 1 June heating degree days 0  
Since 1 July heating degree days 1136  
Cooling Degree Days 21    
Month to date cooling degree days 144  
Year to date cooling degree days 637  
Since 1 June cooling degree days 144  
Growing Degree Days 35 (Base 50)    
Moisture  
Dew Point 73 °F    
Average Humidity 67    
Maximum Humidity 85    
Minimum Humidity 49    
Precipitation  
Precipitation 0.00 in 0.16 in 3.78 in (1966)
Month to date precipitation 2.69 1.25  
Year to date precipitation 29.87 20.63  
Sea Level Pressure  
Sea Level Pressure 29.94 in    
Wind  
Wind Speed 9 mph (WSW)    
Max Wind Speed 16 mph    
Max Gust Speed 20 mph    
Visibility 10 miles    
Events      
T = Trace of Precipitation, MM = Missing Value Source: NWS Daily Summary

Daily Weather History Graph

Daily Weather History Graph

Search for Another Location

Airport or City:

Trip Planner

Search our weather history database for the weather conditions in past years. The results will help you decide how hot, cold, wet, or windy it might be!

Date:

Astronomy

Jun. 09, 2014 Rise Set
Actual Time 6:39 AM EDT 8:39 PM EDT
Civil Twilight 6:11 AM EDT 9:07 PM EDT
Nautical Twilight 5:38 AM EDT 9:40 PM EDT
Astronomical Twilight 5:03 AM EDT 10:15 PM EDT
Moon 5:13 PM EDT (6/9) 3:50 AM EDT (6/9)
Length of Visible Light 14h 55m
Length of Day
14h 00m
Waxing Gibbous, 85% of the Moon is Illuminated
Jun 9
Waxing Gibbous
Jun 13
Full
Jun 19
Last Quarter
Jun 27
New
Jul 5
First Quarter

Hourly Weather History & Observations

Time (EDT) Temp. Heat Index Dew Point Humidity Pressure Visibility Wind Dir Wind Speed Gust Speed Precip Events Conditions
12:53 AM 81.0 °F 87.3 °F 75.9 °F 85% 29.96 in 10.0 mi Calm Calm - N/A   Clear
1:22 AM 81.0 °F 87.3 °F 75.9 °F 85% 29.95 in 10.0 mi NE 5.8 mph - N/A   Mostly Cloudy
1:53 AM 80.1 °F 85.4 °F 75.9 °F 87% 29.94 in 10.0 mi Calm Calm - N/A   Mostly Cloudy
2:05 AM 79.0 °F - 75.0 °F 88% 29.93 in 10.0 mi Calm Calm - N/A   Scattered Clouds
2:53 AM 80.1 °F 85.4 °F 75.9 °F 87% 29.91 in 10.0 mi Variable 3.5 mph - N/A   Mostly Cloudy
3:29 AM 82.0 °F 89.4 °F 75.9 °F 82% 29.90 in 10.0 mi SW 10.4 mph - N/A   Mostly Cloudy
3:48 AM 82.4 °F 89.5 °F 75.2 °F 79% 29.90 in 10.0 mi SW 10.4 mph - N/A   Scattered Clouds
3:53 AM 82.0 °F 88.6 °F 75.0 °F 79% 29.90 in 10.0 mi SW 11.5 mph - N/A   Scattered Clouds
4:31 AM 82.0 °F 88.6 °F 75.0 °F 79% 29.92 in 10.0 mi SW 9.2 mph - N/A   Mostly Cloudy
4:53 AM 82.0 °F 88.6 °F 75.0 °F 79% 29.92 in 10.0 mi WSW 6.9 mph - N/A   Mostly Cloudy
5:12 AM 82.0 °F 87.9 °F 73.9 °F 76% 29.92 in 10.0 mi WSW 6.9 mph - N/A   Scattered Clouds
5:53 AM 81.0 °F 86.2 °F 73.9 °F 79% 29.94 in 10.0 mi West 9.2 mph - N/A   Clear
6:53 AM 80.1 °F 84.2 °F 73.0 °F 79% 29.95 in 10.0 mi WNW 6.9 mph - N/A   Clear
7:53 AM 82.0 °F 87.9 °F 73.9 °F 76% 29.95 in 10.0 mi WNW 6.9 mph - N/A   Clear
8:53 AM 84.0 °F 91.2 °F 73.9 °F 72% 29.96 in 10.0 mi West 5.8 mph - N/A   Clear
9:28 AM 86.0 °F 93.0 °F 73.0 °F 65% 29.96 in 10.0 mi West 11.5 mph - N/A   Mostly Cloudy
9:38 AM 86.0 °F 93.0 °F 73.0 °F 65% 29.96 in 10.0 mi West 5.8 mph - N/A   Scattered Clouds
9:53 AM 86.0 °F 93.0 °F 73.0 °F 65% 29.96 in 10.0 mi WNW 9.2 mph - N/A   Scattered Clouds
10:53 AM 87.8 °F 93.8 °F 71.6 °F 58% 29.97 in 10.0 mi WNW 9.2 mph - N/A   Mostly Cloudy
11:53 AM 90.0 °F 96.9 °F 72.0 °F 55% 29.97 in 10.0 mi WNW 11.5 mph - N/A   Mostly Cloudy
12:53 PM 88.0 °F 94.7 °F 72.0 °F 59% 29.97 in 10.0 mi West 10.4 mph - N/A   Mostly Cloudy
2:53 PM 91.0 °F 99.3 °F 73.0 °F 55% 29.94 in 10.0 mi WSW 13.8 mph - N/A   Clear
3:53 PM 91.0 °F 96.6 °F 70.0 °F 50% 29.93 in 10.0 mi WSW 13.8 mph - N/A   Clear
4:53 PM 89.1 °F 95.0 °F 71.1 °F 55% 29.92 in 10.0 mi SSW 13.8 mph - N/A   Clear
5:53 PM 88.0 °F 94.7 °F 72.0 °F 59% 29.91 in 10.0 mi SW 13.8 mph - N/A   Clear
6:53 PM 87.1 °F 92.8 °F 71.1 °F 59% 29.91 in 10.0 mi SW 11.5 mph - N/A   Clear
7:53 PM 84.0 °F 89.6 °F 72.0 °F 67% 29.92 in 10.0 mi SW 10.4 mph - N/A   Clear
8:53 PM 82.9 °F 88.0 °F 72.0 °F 69% 29.94 in 10.0 mi SW 9.2 mph - N/A   Partly Cloudy
9:53 PM 82.0 °F 86.7 °F 72.0 °F 71% 29.95 in 10.0 mi WSW 8.1 mph - N/A   Clear
10:53 PM 82.0 °F 86.7 °F 72.0 °F 71% 29.98 in 10.0 mi SW 6.9 mph - N/A   Clear
11:53 PM 82.0 °F 86.7 °F 72.0 °F 71% 29.98 in 10.0 mi SW 5.8 mph - N/A   Clear